Elyria, OH

4:52 AM EST on December 09, 2016 (GMT -0500)
Lorain County Regional

Weather History for KLPR - June, 2014

Change the Weather History Date:

Saturday, June 7, 2014

  Actual Average (KCLE) Record (KCLE)
Temperature  
Mean Temperature 68 °F -  
Max Temperature 82 °F 77 °F 91 °F (1999)
Min Temperature 55 °F 56 °F 39 °F (1977)
Cooling Degree Days 4    
Growing Degree Days 18 (Base 50)    
Moisture  
Dew Point 46 °F    
Average Humidity 46    
Maximum Humidity 77    
Minimum Humidity 24    
Precipitation  
Precipitation 0.00 in - - ()
Sea Level Pressure  
Sea Level Pressure 30.00 in    
Wind  
Wind Speed 4 mph (ESE)    
Max Wind Speed 13 mph    
Max Gust Speed -    
Visibility 10 miles    
Events      
Averages and records for this station are not official NWS values.
T = Trace of Precipitation, MM = Missing Value Source: NWS Daily Summary

Daily Weather History Graph

Daily Weather History Graph

Search for Another Location

Airport or City:

Trip Planner

Search our weather history database for the weather conditions in past years. The results will help you decide how hot, cold, wet, or windy it might be!

Date:

Astronomy

Jun. 07, 2014 Rise Set
Actual Time 5:55 AM EDT 8:59 PM EDT
Civil Twilight 5:22 AM EDT 9:33 PM EDT
Nautical Twilight 4:39 AM EDT 10:16 PM EDT
Astronomical Twilight 3:49 AM EDT 11:06 PM EDT
Moon 3:12 PM EDT (6/7) 2:20 AM EDT (6/7)
Length of Visible Light 16h 11m
Length of Day
15h 04m
Waxing Gibbous, 67% of the Moon is Illuminated
Jun 7
Waxing Gibbous
Jun 13
Full
Jun 19
Last Quarter
Jun 27
New
Jul 5
First Quarter

Hourly Weather History & Observations

Time (EDT) Temp. Dew Point Humidity Pressure Visibility Wind Dir Wind Speed Gust Speed Precip Events Conditions
12:53 AM 59.0 °F 46.9 °F 64% 30.04 in 10.0 mi SW 3.5 mph - N/A   Clear
1:53 AM 59.0 °F 46.0 °F 62% 30.02 in 10.0 mi Calm Calm - N/A   Clear
2:53 AM 57.9 °F 46.0 °F 65% 30.02 in 10.0 mi Calm Calm - N/A   Clear
3:53 AM 55.9 °F 46.0 °F 69% 30.03 in 10.0 mi WSW 3.5 mph - N/A   Clear
5:53 AM 55.0 °F 46.9 °F 74% 30.03 in 10.0 mi South 3.5 mph - N/A   Clear
6:53 AM 55.9 °F 48.9 °F 77% 30.04 in 10.0 mi Calm Calm - N/A   Clear
8:53 AM 66.9 °F 48.9 °F 52% 30.09 in 10.0 mi South 5.8 mph - N/A   Clear
9:53 AM 72.0 °F 50.0 °F 46% 30.09 in 10.0 mi SSW 4.6 mph - N/A   Clear
11:53 AM 79.0 °F 46.9 °F 32% 30.04 in 10.0 mi SE 9.2 mph - N/A   Clear
12:53 PM 80.1 °F 42.1 °F 26% 30.03 in 10.0 mi Calm Calm - N/A   Clear
1:53 PM 82.0 °F 44.1 °F 26% 30.01 in 10.0 mi SSE 4.6 mph - N/A   Clear
2:53 PM 82.0 °F 42.1 °F 24% 30.00 in 10.0 mi ESE 5.8 mph - N/A   Clear
3:53 PM 82.0 °F 45.0 °F 27% 29.98 in 10.0 mi NE 10.4 mph - N/A   Clear
4:53 PM 81.0 °F 46.9 °F 30% 29.96 in 10.0 mi NE 12.7 mph - N/A   Clear
5:53 PM 80.1 °F 46.9 °F 31% 29.96 in 10.0 mi NE 12.7 mph - N/A   Clear
6:53 PM 79.0 °F 46.0 °F 31% 29.96 in 10.0 mi ENE 9.2 mph - N/A   Clear
7:53 PM 75.9 °F 46.9 °F 36% 29.94 in 10.0 mi ENE 9.2 mph - N/A   Clear
8:53 PM 71.1 °F 46.9 °F 42% 29.94 in 10.0 mi ENE 5.8 mph - N/A   Clear
9:53 PM 66.9 °F 48.0 °F 51% 29.93 in 10.0 mi East 6.9 mph - N/A   Clear
10:53 PM 68.0 °F 46.9 °F 47% 29.92 in 10.0 mi East 3.5 mph - N/A   Clear
11:53 PM 64.9 °F 48.0 °F 54% 29.91 in 10.0 mi East 3.5 mph - N/A   Clear